Location: Brienzwiler
(46.7508°N, 8.1014°E)
Time: 17:13:54
(UTC+00:00)

IGS 5A - Pass Details

Date: 05 July 2020
Orbit: 582 x 589 km, 97.6° (Epoch: 08 August)

Event Time Altitude Azimuth Distance (km) Brightness Sun altitude
Exits shadow 20:35:37 10° 170° (S) 1,941 5.6 -9.9°
Reaches altitude 10° 20:35:42 10° 170° (S) 1,909 5.5 -9.9°
Maximum altitude 20:39:51 80° 258° (WSW) 603 3.5 -10.4°
Drops below altitude 10° 20:44:01 10° 345° (NNW) 1,921 7.2 -10.9°
Sets 20:46:11 0° 347° (NNW) 2,825 8.2 -11.1°
